Time,TemperatureF,DewpointF,PressureIn,WindDirection,WindDirectionDegrees,WindSpeedMPH,WindSpeedGustMPH,Humidity,HourlyPrecipIn,Conditions,Clouds,dailyrainin,SoftwareType,DateUTC
2013-01-03 00:01:00,31.3,31.2,0.00,North,0,0.0,-999.0,99,0.00,,,-99.99,,2013-01-03 09:01:00,
2013-01-03 00:06:00,31.3,31.1,0.00,North,0,0.0,-999.0,99,0.00,,,-99.99,,2013-01-03 09:06:00,
2013-01-03 00:11:00,31.3,31.1,0.00,North,0,0.0,-999.0,99,0.00,,,-99.99,,2013-01-03 09:11:00,
2013-01-03 00:16:00,31.3,31.1,0.00,North,0,0.0,-999.0,99,0.00,,,-99.99,,2013-01-03 09:16:00,
2013-01-03 00:21:00,31.3,31.0,0.00,North,0,0.0,-999.0,99,0.00,,,-99.99,,2013-01-03 09:21:00,
2013-01-03 00:26:00,31.2,30.9,0.00,North,0,0.0,-999.0,98,0.00,,,-99.99,,2013-01-03 09:26:00,
2013-01-03 00:31:00,31.0,30.7,0.00,North,0,0.0,-999.0,98,0.00,,,-99.99,,2013-01-03 09:31:00,
2013-01-03 00:36:00,30.9,30.5,0.00,North,0,0.0,-999.0,98,0.00,,,-99.99,,2013-01-03 09:36:00,
2013-01-03 00:41:00,30.8,30.4,0.00,North,0,0.0,-999.0,98,0.00,,,-99.99,,2013-01-03 09:41:00,
2013-01-03 00:46:00,30.9,30.4,0.00,North,0,0.0,-999.0,98,0.00,,,-99.99,,2013-01-03 09:46:00,
2013-01-03 00:51:00,31.0,30.6,0.00,North,0,0.0,-999.0,98,0.00,,,-99.99,,2013-01-03 09:51:00,
2013-01-03 00:56:00,31.0,30.4,0.00,North,0,0.0,-999.0,97,0.00,,,-99.99,,2013-01-03 09:56:00,
2013-01-03 01:01:00,31.0,30.3,0.00,North,0,0.0,-999.0,97,0.00,,,-99.99,,2013-01-03 10:01:00,
2013-01-03 01:06:00,31.0,30.2,0.00,North,0,0.0,-999.0,96,0.00,,,-99.99,,2013-01-03 10:06:00,
2013-01-03 01:11:00,30.9,30.2,0.00,North,0,0.0,-999.0,97,0.00,,,-99.99,,2013-01-03 10:11:00,
2013-01-03 01:16:00,30.9,30.2,0.00,North,0,0.0,-999.0,97,0.00,,,-99.99,,2013-01-03 10:16:00,
2013-01-03 01:21:00,30.7,30.1,0.00,North,0,0.0,-999.0,97,0.00,,,-99.99,,2013-01-03 10:21:00,
2013-01-03 01:26:00,31.0,30.3,0.00,North,0,0.0,-999.0,97,0.00,,,-99.99,,2013-01-03 10:26:00,
2013-01-03 01:31:00,31.2,30.4,0.00,North,0,0.0,-999.0,96,0.00,,,-99.99,,2013-01-03 10:31:00,
2013-01-03 01:36:00,31.2,30.4,0.00,North,0,0.0,-999.0,96,0.00,,,-99.99,,2013-01-03 10:36:00,
2013-01-03 01:41:00,31.1,29.8,0.00,North,0,0.0,-999.0,94,0.00,,,-99.99,,2013-01-03 10:41:00,
2013-01-03 01:46:00,30.9,29.8,0.00,North,0,0.0,-999.0,95,0.00,,,-99.99,,2013-01-03 10:46:00,
2013-01-03 01:51:00,30.8,29.7,0.00,North,0,0.0,-999.0,95,0.00,,,-99.99,,2013-01-03 10:51:00,
2013-01-03 01:56:00,30.7,29.5,0.00,North,0,0.0,-999.0,95,0.00,,,-99.99,,2013-01-03 10:56:00,
2013-01-03 02:01:00,30.9,29.8,0.00,North,0,0.0,-999.0,95,0.00,,,-99.99,,2013-01-03 11:01:00,
2013-01-03 02:06:00,30.7,29.6,0.00,North,0,0.0,-999.0,95,0.00,,,-99.99,,2013-01-03 11:06:00,
2013-01-03 02:11:00,30.7,29.7,0.00,North,0,0.0,-999.0,96,0.00,,,-99.99,,2013-01-03 11:11:00,
2013-01-03 02:16:00,30.9,30.0,0.00,North,0,0.0,-999.0,96,0.00,,,-99.99,,2013-01-03 11:16:00,
2013-01-03 02:21:00,30.9,30.0,0.00,North,0,0.0,-999.0,96,0.00,,,-99.99,,2013-01-03 11:21:00,
2013-01-03 02:26:00,30.9,30.1,0.00,North,0,0.0,-999.0,96,0.00,,,-99.99,,2013-01-03 11:26:00,
2013-01-03 02:31:00,30.9,30.1,0.00,North,0,0.0,-999.0,96,0.00,,,-99.99,,2013-01-03 11:31:00,
2013-01-03 02:36:00,30.8,29.8,0.00,North,0,0.0,-999.0,96,0.00,,,-99.99,,2013-01-03 11:36:00,
2013-01-03 02:41:00,30.7,29.4,0.00,North,0,0.0,-999.0,94,0.00,,,-99.99,,2013-01-03 11:41:00,
2013-01-03 02:46:00,31.0,29.8,0.00,North,0,0.0,-999.0,95,0.00,,,-99.99,,2013-01-03 11:46:00,
2013-01-03 02:53:00,31.0,30.0,0.00,North,0,0.0,-999.0,95,0.00,,,-99.99,,2013-01-03 11:53:00,
2013-01-03 02:58:00,30.8,29.7,0.00,North,0,0.0,-999.0,95,0.00,,,-99.99,,2013-01-03 11:58:00,
2013-01-03 03:03:00,30.6,29.5,0.00,North,0,0.0,-999.0,95,0.00,,,-99.99,,2013-01-03 12:03:00,
2013-01-03 03:08:00,30.5,29.5,0.00,North,0,0.0,-999.0,95,0.00,,,-99.99,,2013-01-03 12:08:00,
2013-01-03 03:13:00,30.5,29.4,0.00,North,0,0.0,-999.0,95,0.00,,,-99.99,,2013-01-03 12:13:00,
2013-01-03 03:18:00,30.5,29.4,0.00,North,0,0.0,-999.0,95,0.00,,,-99.99,,2013-01-03 12:18:00,
2013-01-03 03:23:00,30.6,29.4,0.00,North,0,0.0,-999.0,95,0.00,,,-99.99,,2013-01-03 12:23:00,
2013-01-03 03:28:00,30.5,29.4,0.00,North,0,0.0,-999.0,95,0.00,,,-99.99,,2013-01-03 12:28:00,
2013-01-03 03:33:00,30.7,29.3,0.00,North,0,0.0,-999.0,94,0.00,,,-99.99,,2013-01-03 12:33:00,
2013-01-03 03:38:00,30.6,29.5,0.00,North,0,0.0,-999.0,95,0.00,,,-99.99,,2013-01-03 12:38:00,
2013-01-03 03:43:00,30.8,29.9,0.00,North,0,0.0,-999.0,96,0.00,,,-99.99,,2013-01-03 12:43:00,
2013-01-03 03:48:00,30.9,30.1,0.00,North,0,0.0,-999.0,96,0.00,,,-99.99,,2013-01-03 12:48:00,
2013-01-03 03:53:00,31.0,30.2,0.00,North,0,0.0,-999.0,96,0.00,,,-99.99,,2013-01-03 12:53:00,
2013-01-03 03:58:00,31.0,30.2,0.00,North,0,0.0,-999.0,96,0.00,,,-99.99,,2013-01-03 12:58:00,
2013-01-03 04:03:00,31.2,30.4,0.00,North,0,0.0,-999.0,97,0.00,,,-99.99,,2013-01-03 13:03:00,
2013-01-03 04:08:00,31.0,30.5,0.00,North,0,0.0,-999.0,97,0.00,,,-99.99,,2013-01-03 13:08:00,
2013-01-03 04:13:00,30.8,30.4,0.00,North,0,0.0,-999.0,98,0.00,,,-99.99,,2013-01-03 13:13:00,
2013-01-03 04:18:00,30.6,30.3,0.00,North,0,0.0,-999.0,98,0.00,,,-99.99,,2013-01-03 13:18:00,
2013-01-03 04:23:00,30.6,30.3,0.00,North,0,0.0,-999.0,98,0.00,,,-99.99,,2013-01-03 13:23:00,
2013-01-03 04:28:00,30.7,30.4,0.00,North,0,0.0,-999.0,98,0.00,,,-99.99,,2013-01-03 13:28:00,
2013-01-03 04:33:00,30.9,30.5,0.00,North,0,0.0,-999.0,98,0.00,,,-99.99,,2013-01-03 13:33:00,
2013-01-03 04:38:00,30.9,30.5,0.00,North,0,0.0,-999.0,98,0.00,,,-99.99,,2013-01-03 13:38:00,
2013-01-03 04:43:00,30.9,30.5,0.00,North,0,0.0,-999.0,98,0.00,,,-99.99,,2013-01-03 13:43:00,
2013-01-03 04:48:00,31.1,30.6,0.00,North,0,0.0,-999.0,97,0.00,,,-99.99,,2013-01-03 13:48:00,
2013-01-03 04:53:00,31.3,30.7,0.00,North,0,0.0,-999.0,97,0.00,,,-99.99,,2013-01-03 13:53:00,
2013-01-03 04:58:00,31.2,30.6,0.00,North,0,0.0,-999.0,97,0.00,,,-99.99,,2013-01-03 13:58:00,
2013-01-03 05:03:00,31.2,30.6,0.00,North,0,0.0,-999.0,97,0.00,,,-99.99,,2013-01-03 14:03:00,
2013-01-03 05:08:00,31.0,30.5,0.00,North,0,0.0,-999.0,97,0.00,,,-99.99,,2013-01-03 14:08:00,
2013-01-03 05:13:00,31.2,30.6,0.00,North,0,0.0,-999.0,97,0.00,,,-99.99,,2013-01-03 14:13:00,
2013-01-03 05:18:00,31.2,30.7,0.00,North,0,0.0,-999.0,97,0.00,,,-99.99,,2013-01-03 14:18:00,
2013-01-03 05:23:00,31.2,30.5,0.00,North,0,0.0,-999.0,97,0.00,,,-99.99,,2013-01-03 14:23:00,
2013-01-03 05:28:00,31.3,30.7,0.00,North,1,0.0,-999.0,97,0.00,,,-99.99,,2013-01-03 14:28:00,
2013-01-03 05:33:00,31.3,30.8,0.00,North,1,0.0,-999.0,98,0.00,,,-99.99,,2013-01-03 14:33:00,
2013-01-03 05:38:00,31.1,30.6,0.00,North,1,0.0,-999.0,98,0.00,,,-99.99,,2013-01-03 14:38:00,
2013-01-03 05:43:00,31.3,30.8,0.00,North,1,0.0,-999.0,98,0.00,,,-99.99,,2013-01-03 14:43:00,
2013-01-03 05:48:00,31.3,30.9,0.00,North,1,0.0,-999.0,98,0.00,,,-99.99,,2013-01-03 14:48:00,
2013-01-03 05:53:00,31.3,30.9,0.00,North,1,0.0,-999.0,98,0.00,,,-99.99,,2013-01-03 14:53:00,
2013-01-03 05:58:00,31.6,31.2,0.00,North,1,0.0,-999.0,98,0.00,,,-99.99,,2013-01-03 14:58:00,
2013-01-03 06:03:00,31.4,31.0,0.00,North,1,0.0,-999.0,98,0.00,,,-99.99,,2013-01-03 15:03:00,
2013-01-03 06:08:00,31.3,30.9,0.00,North,1,0.0,-999.0,98,0.00,,,-99.99,,2013-01-03 15:08:00,
2013-01-03 06:13:00,31.3,30.9,0.00,North,1,0.0,-999.0,98,0.00,,,-99.99,,2013-01-03 15:13:00,
2013-01-03 06:18:00,31.4,31.0,0.00,North,1,0.0,-999.0,98,0.00,,,-99.99,,2013-01-03 15:18:00,
2013-01-03 06:23:00,31.2,30.9,0.00,North,1,0.0,-999.0,98,0.00,,,-99.99,,2013-01-03 15:23:00,
2013-01-03 06:28:00,31.0,30.7,0.00,North,1,0.0,-999.0,98,0.00,,,-99.99,,2013-01-03 15:28:00,
2013-01-03 06:33:00,31.0,30.7,0.00,North,1,0.0,-999.0,98,0.00,,,-99.99,,2013-01-03 15:33:00,
2013-01-03 06:38:00,30.9,30.4,0.00,North,1,0.0,-999.0,98,0.00,,,-99.99,,2013-01-03 15:38:00,
2013-01-03 06:43:00,31.1,30.5,0.00,North,1,0.0,-999.0,97,0.00,,,-99.99,,2013-01-03 15:43:00,
2013-01-03 06:48:00,31.2,30.6,0.00,North,1,0.0,-999.0,97,0.00,,,-99.99,,2013-01-03 15:48:00,
2013-01-03 06:53:00,31.0,30.5,0.00,North,1,0.0,-999.0,98,0.00,,,-99.99,,2013-01-03 15:53:00,
2013-01-03 07:00:00,30.7,30.2,0.00,North,1,0.0,-999.0,97,0.00,,,-99.99,,2013-01-03 16:00:00,
2013-01-03 07:05:00,30.7,30.1,0.00,North,1,0.0,-999.0,97,0.00,,,-99.99,,2013-01-03 16:05:00,
2013-01-03 07:10:00,30.8,30.1,0.00,North,1,0.0,-999.0,97,0.00,,,-99.99,,2013-01-03 16:10:00,
2013-01-03 07:15:00,30.8,30.2,0.00,North,1,0.0,-999.0,97,0.00,,,-99.99,,2013-01-03 16:15:00,
2013-01-03 07:20:00,31.0,30.5,0.00,North,2,0.0,-999.0,98,0.00,,,-99.99,,2013-01-03 16:20:00,
2013-01-03 07:25:00,31.0,30.5,0.00,North,2,0.0,-999.0,97,0.00,,,-99.99,,2013-01-03 16:25:00,
2013-01-03 07:31:00,30.9,30.4,0.00,North,2,0.0,-999.0,97,0.00,,,-99.99,,2013-01-03 16:31:00,
2013-01-03 07:36:00,30.8,30.2,0.00,North,2,0.0,-999.0,97,0.00,,,-99.99,,2013-01-03 16:36:00,
2013-01-03 07:41:00,30.8,30.2,0.00,North,2,0.0,-999.0,97,0.00,,,-99.99,,2013-01-03 16:41:00,
2013-01-03 07:46:00,30.9,30.2,0.00,North,2,0.0,-999.0,97,0.00,,,-99.99,,2013-01-03 16:46:00,
2013-01-03 07:51:00,30.7,30.1,0.00,North,2,0.0,-999.0,97,0.00,,,-99.99,,2013-01-03 16:51:00,
2013-01-03 07:58:00,30.7,30.2,0.00,North,2,0.0,-999.0,97,0.00,,,-99.99,,2013-01-03 16:58:00,
2013-01-03 08:03:00,30.9,30.5,0.00,North,2,0.0,-999.0,98,0.00,,,-99.99,,2013-01-03 17:03:00,
2013-01-03 08:08:00,30.9,30.5,0.00,North,2,0.0,-999.0,98,0.00,,,-99.99,,2013-01-03 17:08:00,
2013-01-03 08:14:00,31.1,30.6,0.00,North,2,0.0,-999.0,98,0.00,,,-99.99,,2013-01-03 17:14:00,
2013-01-03 08:19:00,30.9,30.4,0.00,North,2,0.0,-999.0,98,0.00,,,-99.99,,2013-01-03 17:19:00,
2013-01-03 08:24:00,31.1,30.6,0.00,North,3,0.0,-999.0,98,0.00,,,-99.99,,2013-01-03 17:24:00,
2013-01-03 08:29:00,31.2,30.7,0.00,North,3,0.0,-999.0,98,0.00,,,-99.99,,2013-01-03 17:29:00,
2013-01-03 08:34:00,31.2,30.7,0.00,North,3,0.0,-999.0,98,0.00,,,-99.99,,2013-01-03 17:34:00,
2013-01-03 08:39:00,31.3,30.8,0.00,North,3,0.0,-999.0,98,0.00,,,-99.99,,2013-01-03 17:39:00,
2013-01-03 08:44:00,31.5,30.9,0.00,North,3,0.0,-999.0,97,0.00,,,-99.99,,2013-01-03 17:44:00,
2013-01-03 08:49:00,31.4,30.7,0.00,North,3,0.0,-999.0,97,0.00,,,-99.99,,2013-01-03 17:49:00,
2013-01-03 08:54:00,31.5,30.9,0.00,North,3,0.0,-999.0,97,0.00,,,-99.99,,2013-01-03 17:54:00,
2013-01-03 09:00:00,31.4,30.8,0.00,North,3,0.0,-999.0,97,0.00,,,-99.99,,2013-01-03 18:00:00,
2013-01-03 09:05:00,31.2,30.6,0.00,North,3,0.0,-999.0,97,0.00,,,-99.99,,2013-01-03 18:05:00,
2013-01-03 09:10:00,31.4,30.8,0.00,North,3,0.0,-999.0,97,0.00,,,-99.99,,2013-01-03 18:10:00,
2013-01-03 09:15:00,31.4,30.8,0.00,North,3,0.0,-999.0,97,0.00,,,-99.99,,2013-01-03 18:15:00,
2013-01-03 09:20:00,31.5,30.9,0.00,North,3,0.0,-999.0,97,0.00,,,-99.99,,2013-01-03 18:20:00,
2013-01-03 09:25:00,31.3,30.8,0.00,North,2,0.0,-999.0,97,0.00,,,-99.99,,2013-01-03 18:25:00,
2013-01-03 09:30:00,31.6,31.2,0.00,North,2,0.0,-999.0,98,0.00,,,-99.99,,2013-01-03 18:30:00,
2013-01-03 09:36:00,31.5,31.1,0.00,North,2,0.0,-999.0,98,0.00,,,-99.99,,2013-01-03 18:36:00,
2013-01-03 09:41:00,31.8,31.3,0.00,North,2,0.0,-999.0,98,0.00,,,-99.99,,2013-01-03 18:41:00,
2013-01-03 09:46:00,31.6,31.3,0.00,North,2,0.0,-999.0,98,0.00,,,-99.99,,2013-01-03 18:46:00,
2013-01-03 09:52:00,31.3,31.0,0.00,North,2,0.0,-999.0,98,0.00,,,-99.99,,2013-01-03 18:52:00,
2013-01-03 09:57:00,31.2,30.8,0.00,North,2,0.0,-999.0,98,0.00,,,-99.99,,2013-01-03 18:57:00,
2013-01-03 10:02:00,31.2,30.8,0.00,North,2,0.0,-999.0,98,0.00,,,-99.99,,2013-01-03 19:02:00,
2013-01-03 10:07:00,31.5,30.8,0.00,North,2,0.0,-999.0,97,0.00,,,-99.99,,2013-01-03 19:07:00,
2013-01-03 10:12:00,31.5,30.8,0.00,North,2,0.0,-999.0,97,0.00,,,-99.99,,2013-01-03 19:12:00,
2013-01-03 10:17:00,31.6,31.0,0.00,North,2,0.0,-999.0,97,0.00,,,-99.99,,2013-01-03 19:17:00,
2013-01-03 10:51:00,31.8,31.4,0.00,North,2,0.0,-999.0,98,0.00,,,-99.99,,2013-01-03 19:51:00,
2013-01-03 10:56:00,32.0,31.6,0.00,North,2,0.0,-999.0,98,0.00,,,-99.99,,2013-01-03 19:56:00,
2013-01-03 11:01:00,31.8,31.5,0.00,North,1,0.0,-999.0,98,0.00,,,-99.99,,2013-01-03 20:01:00,
2013-01-03 11:06:00,32.0,31.7,0.00,North,1,0.0,-999.0,98,0.00,,,-99.99,,2013-01-03 20:06:00,
2013-01-03 11:11:00,31.9,31.6,0.00,North,1,0.0,-999.0,98,0.00,,,-99.99,,2013-01-03 20:11:00,
2013-01-03 11:16:00,32.0,31.8,0.00,North,1,0.0,-999.0,99,0.00,,,-99.99,,2013-01-03 20:16:00,
2013-01-03 11:21:00,32.0,31.8,0.00,North,1,0.0,-999.0,99,0.00,,,-99.99,,2013-01-03 20:21:00,
2013-01-03 11:26:00,32.0,31.8,0.00,North,1,0.0,-999.0,99,0.00,,,-99.99,,2013-01-03 20:26:00,
2013-01-03 11:31:00,32.1,32.0,0.00,North,1,0.0,-999.0,99,0.00,,,-99.99,,2013-01-03 20:31:00,
2013-01-03 11:37:00,32.1,32.0,0.00,North,1,0.0,-999.0,99,0.00,,,-99.99,,2013-01-03 20:37:00,
2013-01-03 11:42:00,32.1,32.0,0.00,North,1,0.0,-999.0,99,0.00,,,-99.99,,2013-01-03 20:42:00,
2013-01-03 11:47:00,32.2,32.1,0.00,North,1,0.0,-999.0,99,0.00,,,-99.99,,2013-01-03 20:47:00,
2013-01-03 11:52:00,32.1,32.1,0.00,North,1,0.0,-999.0,99,0.00,,,-99.99,,2013-01-03 20:52:00,
2013-01-03 11:57:00,31.9,31.8,0.00,North,1,0.0,-999.0,99,0.00,,,-99.99,,2013-01-03 20:57:00,
2013-01-03 12:02:00,31.6,31.5,0.00,North,1,0.0,-999.0,99,0.00,,,-99.99,,2013-01-03 21:02:00,
2013-01-03 12:07:00,31.5,31.4,0.00,North,1,0.0,-999.0,99,0.00,,,-99.99,,2013-01-03 21:07:00,
2013-01-03 12:12:00,31.2,31.1,0.00,North,1,0.0,-999.0,99,0.00,,,-99.99,,2013-01-03 21:12:00,
2013-01-03 12:17:00,31.2,31.2,0.00,North,1,0.0,-999.0,99,0.00,,,-99.99,,2013-01-03 21:17:00,
2013-01-03 12:22:00,31.2,31.1,0.00,North,0,0.0,-999.0,99,0.00,,,-99.99,,2013-01-03 21:22:00,
2013-01-03 12:27:00,31.3,31.3,0.00,North,0,0.0,-999.0,99,0.00,,,-99.99,,2013-01-03 21:27:00,
2013-01-03 12:32:00,31.3,31.3,0.00,North,0,0.0,-999.0,99,0.00,,,-99.99,,2013-01-03 21:32:00,
2013-01-03 12:37:00,31.3,31.3,0.00,North,0,0.0,-999.0,100,0.00,,,-99.99,,2013-01-03 21:37:00,
2013-01-03 12:43:00,31.3,31.3,0.00,North,0,0.0,-999.0,100,0.00,,,-99.99,,2013-01-03 21:43:00,
2013-01-03 12:48:00,31.0,31.0,0.00,North,0,0.0,-999.0,100,0.00,,,-99.99,,2013-01-03 21:48:00,
2013-01-03 12:53:00,31.0,31.0,0.00,North,0,0.0,-999.0,100,0.00,,,-99.99,,2013-01-03 21:53:00,
2013-01-03 12:58:00,31.1,31.1,0.00,North,0,0.0,-999.0,100,0.00,,,-99.99,,2013-01-03 21:58:00,
2013-01-03 13:03:00,31.0,30.9,0.00,North,0,0.0,-999.0,100,0.00,,,-99.99,,2013-01-03 22:03:00,
2013-01-03 13:08:00,31.0,30.9,0.00,North,0,0.0,-999.0,100,0.00,,,-99.99,,2013-01-03 22:08:00,
2013-01-03 13:13:00,30.9,30.8,0.00,North,0,0.0,-999.0,100,0.00,,,-99.99,,2013-01-03 22:13:00,
2013-01-03 13:18:00,31.0,30.9,0.00,North,0,0.0,-999.0,100,0.00,,,-99.99,,2013-01-03 22:18:00,
2013-01-03 13:23:00,30.9,30.9,0.00,North,0,0.0,-999.0,100,0.00,,,-99.99,,2013-01-03 22:23:00,
2013-01-03 13:28:00,31.0,31.0,0.00,North,0,0.0,-999.0,100,0.00,,,-99.99,,2013-01-03 22:28:00,
2013-01-03 13:33:00,31.2,31.1,0.00,North,0,0.0,-999.0,100,0.00,,,-99.99,,2013-01-03 22:33:00,
2013-01-03 13:38:00,31.4,31.3,0.00,North,0,0.0,-999.0,100,0.00,,,-99.99,,2013-01-03 22:38:00,
2013-01-03 13:43:00,31.4,31.3,0.00,North,0,0.0,-999.0,100,0.00,,,-99.99,,2013-01-03 22:43:00,
2013-01-03 13:48:00,31.3,31.3,0.00,North,0,0.0,-999.0,99,0.00,,,-99.99,,2013-01-03 22:48:00,
2013-01-03 13:53:00,31.4,31.3,0.00,North,0,0.0,-999.0,100,0.00,,,-99.99,,2013-01-03 22:53:00,
2013-01-03 13:58:00,31.7,31.7,0.00,North,1,0.0,-999.0,100,0.00,,,-99.99,,2013-01-03 22:58:00,
2013-01-03 14:03:00,31.8,31.7,0.00,North,1,0.0,-999.0,99,0.00,,,-99.99,,2013-01-03 23:03:00,
2013-01-03 14:08:00,31.6,31.6,0.00,North,1,0.0,-999.0,99,0.00,,,-99.99,,2013-01-03 23:08:00,
2013-01-03 14:14:00,31.5,31.4,0.00,North,1,0.0,-999.0,99,0.00,,,-99.99,,2013-01-03 23:14:00,
2013-01-03 14:19:00,31.5,31.5,0.00,North,1,0.0,-999.0,100,0.00,,,-99.99,,2013-01-03 23:19:00,
2013-01-03 14:24:00,31.2,31.2,0.00,North,1,0.0,-999.0,99,0.00,,,-99.99,,2013-01-03 23:24:00,
2013-01-03 14:29:00,31.2,31.2,0.00,North,1,0.0,-999.0,100,0.00,,,-99.99,,2013-01-03 23:29:00,
2013-01-03 14:34:00,31.3,31.2,0.00,North,1,0.0,-999.0,100,0.00,,,-99.99,,2013-01-03 23:34:00,
2013-01-03 14:39:00,31.4,31.4,0.00,North,1,0.0,-999.0,100,0.00,,,-99.99,,2013-01-03 23:39:00,
2013-01-03 14:44:00,31.5,31.5,0.00,North,1,0.0,-999.0,99,0.00,,,-99.99,,2013-01-03 23:44:00,
2013-01-03 14:49:00,31.3,31.3,0.00,North,1,0.0,-999.0,99,0.00,,,-99.99,,2013-01-03 23:49:00,
2013-01-03 14:54:00,31.2,31.2,0.00,North,1,0.0,-999.0,100,0.00,,,-99.99,,2013-01-03 23:54:00,
2013-01-03 14:59:00,31.0,31.0,0.00,North,1,0.0,-999.0,99,0.00,,,-99.99,,2013-01-03 23:59:00,
2013-01-03 15:04:00,31.2,31.2,0.00,North,1,0.0,-999.0,100,0.00,,,-99.99,,2013-01-04 00:04:00,
2013-01-03 15:09:00,30.6,30.5,0.00,North,1,0.0,-999.0,99,0.00,,,-99.99,,2013-01-04 00:09:00,
2013-01-03 15:14:00,29.8,29.6,0.00,North,0,0.0,-999.0,99,0.00,,,-99.99,,2013-01-04 00:14:00,
2013-01-03 15:19:00,29.8,29.3,0.00,North,0,0.0,-999.0,98,0.00,,,-99.99,,2013-01-04 00:19:00,
2013-01-03 15:24:00,29.9,28.8,0.00,North,0,0.0,-999.0,95,0.00,,,-99.99,,2013-01-04 00:24:00,
2013-01-03 15:29:00,30.1,28.5,0.00,North,0,0.0,-999.0,93,0.00,,,-99.99,,2013-01-04 00:29:00,
2013-01-03 15:34:00,30.0,28.5,0.00,North,0,0.0,-999.0,93,0.00,,,-99.99,,2013-01-04 00:34:00,
2013-01-03 15:39:00,30.3,27.8,0.00,North,0,0.0,-999.0,90,0.00,,,-99.99,,2013-01-04 00:39:00,
2013-01-03 15:44:00,30.3,27.8,0.00,North,0,0.0,-999.0,90,0.00,,,-99.99,,2013-01-04 00:44:00,
2013-01-03 15:49:00,30.2,28.2,0.00,North,0,0.0,-999.0,92,0.00,,,-99.99,,2013-01-04 00:49:00,
2013-01-03 15:54:00,30.4,27.5,0.00,North,0,0.0,-999.0,88,0.00,,,-99.99,,2013-01-04 00:54:00,
2013-01-03 15:59:00,30.6,27.2,0.00,North,0,0.0,-999.0,87,0.00,,,-99.99,,2013-01-04 00:59:00,
2013-01-03 16:04:00,30.6,27.5,0.00,North,0,0.0,-999.0,88,0.00,,,-99.99,,2013-01-04 01:04:00,
2013-01-03 16:09:00,30.4,26.9,0.00,North,0,0.0,-999.0,86,0.00,,,-99.99,,2013-01-04 01:09:00,
2013-01-03 16:14:00,30.5,26.9,0.00,North,0,0.0,-999.0,86,0.00,,,-99.99,,2013-01-04 01:14:00,
2013-01-03 16:19:00,30.7,26.9,0.00,North,0,0.0,-999.0,85,0.00,,,-99.99,,2013-01-04 01:19:00,
2013-01-03 16:24:00,30.4,26.6,0.00,North,0,0.0,-999.0,85,0.00,,,-99.99,,2013-01-04 01:24:00,
2013-01-03 16:29:00,30.3,26.7,0.00,North,0,0.0,-999.0,86,0.00,,,-99.99,,2013-01-04 01:29:00,
2013-01-03 16:34:00,30.4,26.7,0.00,North,0,0.0,-999.0,85,0.00,,,-99.99,,2013-01-04 01:34:00,
2013-01-03 16:39:00,30.4,26.7,0.00,North,0,0.0,-999.0,85,0.00,,,-99.99,,2013-01-04 01:39:00,
2013-01-03 16:44:00,30.2,26.9,0.00,North,0,0.0,-999.0,87,0.00,,,-99.99,,2013-01-04 01:44:00,
2013-01-03 16:49:00,29.8,27.1,0.00,North,0,0.0,-999.0,89,0.00,,,-99.99,,2013-01-04 01:49:00,
2013-01-03 16:54:00,29.6,27.0,0.00,North,0,0.0,-999.0,90,0.00,,,-99.99,,2013-01-04 01:54:00,
2013-01-03 16:59:00,29.4,27.2,0.00,North,0,0.0,-999.0,91,0.00,,,-99.99,,2013-01-04 01:59:00,
2013-01-03 17:04:00,29.5,27.5,0.00,North,0,0.0,-999.0,91,0.00,,,-99.99,,2013-01-04 02:04:00,
2013-01-03 17:09:00,29.5,27.6,0.00,North,0,0.0,-999.0,92,0.00,,,-99.99,,2013-01-04 02:09:00,
2013-01-03 17:14:00,29.3,27.4,0.00,North,0,0.0,-999.0,92,0.00,,,-99.99,,2013-01-04 02:14:00,
2013-01-03 17:19:00,29.2,27.1,0.00,North,0,0.0,-999.0,91,0.00,,,-99.99,,2013-01-04 02:19:00,
2013-01-03 17:24:00,30.0,27.1,0.00,North,0,0.0,-999.0,88,0.00,,,-99.99,,2013-01-04 02:24:00,
2013-01-03 17:29:00,29.8,27.2,0.00,North,0,0.0,-999.0,89,0.00,,,-99.99,,2013-01-04 02:29:00,
2013-01-03 17:34:00,30.4,27.0,0.00,North,0,0.0,-999.0,87,0.00,,,-99.99,,2013-01-04 02:34:00,
2013-01-03 17:39:00,30.0,27.4,0.00,North,0,0.0,-999.0,89,0.00,,,-99.99,,2013-01-04 02:39:00,
2013-01-03 17:44:00,29.8,27.5,0.00,North,0,0.0,-999.0,90,0.00,,,-99.99,,2013-01-04 02:44:00,
2013-01-03 17:49:00,30.0,27.5,0.00,North,0,0.0,-999.0,90,0.00,,,-99.99,,2013-01-04 02:49:00,
2013-01-03 17:54:00,30.0,27.7,0.00,North,0,0.0,-999.0,91,0.00,,,-99.99,,2013-01-04 02:54:00,
2013-01-03 17:59:00,30.1,27.8,0.00,North,0,0.0,-999.0,91,0.00,,,-99.99,,2013-01-04 02:59:00,
2013-01-03 18:04:00,30.0,27.9,0.00,North,0,0.0,-999.0,91,0.00,,,-99.99,,2013-01-04 03:04:00,
2013-01-03 18:09:00,30.0,27.6,0.00,North,0,0.0,-999.0,90,0.00,,,-99.99,,2013-01-04 03:09:00,
2013-01-03 18:14:00,30.1,27.2,0.00,North,0,0.0,-999.0,89,0.00,,,-99.99,,2013-01-04 03:14:00,
2013-01-03 18:19:00,30.1,27.4,0.00,North,0,0.0,-999.0,89,0.00,,,-99.99,,2013-01-04 03:19:00,
2013-01-03 18:24:00,30.3,27.7,0.00,North,0,0.0,-999.0,90,0.00,,,-99.99,,2013-01-04 03:24:00,
2013-01-03 18:29:00,30.2,27.8,0.00,North,0,0.0,-999.0,90,0.00,,,-99.99,,2013-01-04 03:29:00,
2013-01-03 18:34:00,30.2,27.8,0.00,North,0,0.0,-999.0,90,0.00,,,-99.99,,2013-01-04 03:34:00,
2013-01-03 18:39:00,29.9,27.5,0.00,North,0,0.0,-999.0,90,0.00,,,-99.99,,2013-01-04 03:39:00,
2013-01-03 18:44:00,29.6,27.2,0.00,North,0,0.0,-999.0,90,0.00,,,-99.99,,2013-01-04 03:44:00,
2013-01-03 18:49:00,29.6,27.4,0.00,North,0,0.0,-999.0,91,0.00,,,-99.99,,2013-01-04 03:49:00,
2013-01-03 18:54:00,29.6,27.3,0.00,North,0,0.0,-999.0,90,0.00,,,-99.99,,2013-01-04 03:54:00,
2013-01-03 18:59:00,29.8,27.5,0.00,North,0,0.0,-999.0,91,0.00,,,-99.99,,2013-01-04 03:59:00,
2013-01-03 19:04:00,29.5,27.4,0.00,North,0,0.0,-999.0,91,0.00,,,-99.99,,2013-01-04 04:04:00,
2013-01-03 19:09:00,29.5,27.4,0.00,North,0,0.0,-999.0,92,0.00,,,-99.99,,2013-01-04 04:09:00,
2013-01-03 19:14:00,29.3,27.8,0.00,North,0,0.0,-999.0,93,0.00,,,-99.99,,2013-01-04 04:14:00,
2013-01-03 19:19:00,29.5,28.1,0.00,North,0,0.0,-999.0,94,0.00,,,-99.99,,2013-01-04 04:19:00,
2013-01-03 19:24:00,29.6,28.6,0.00,North,0,0.0,-999.0,95,0.00,,,-99.99,,2013-01-04 04:24:00,
2013-01-03 19:29:00,29.8,29.0,0.00,North,0,0.0,-999.0,96,0.00,,,-99.99,,2013-01-04 04:29:00,
2013-01-03 19:34:00,30.1,29.3,0.00,North,0,0.0,-999.0,96,0.00,,,-99.99,,2013-01-04 04:34:00,
2013-01-03 19:39:00,30.4,29.6,0.00,North,0,0.0,-999.0,96,0.00,,,-99.99,,2013-01-04 04:39:00,
2013-01-03 19:44:00,30.4,29.7,0.00,North,0,0.0,-999.0,97,0.00,,,-99.99,,2013-01-04 04:44:00,
2013-01-03 19:49:00,30.3,29.7,0.00,North,0,0.0,-999.0,97,0.00,,,-99.99,,2013-01-04 04:49:00,
2013-01-03 19:54:00,30.0,29.4,0.00,North,0,0.0,-999.0,97,0.00,,,-99.99,,2013-01-04 04:54:00,
2013-01-03 19:59:00,29.7,29.2,0.00,North,0,0.0,-999.0,98,0.00,,,-99.99,,2013-01-04 04:59:00,
2013-01-03 20:03:00,29.6,29.2,0.00,North,0,0.0,-999.0,98,0.00,,,-99.99,,2013-01-04 05:03:00,
2013-01-03 20:04:00,29.6,29.2,0.00,North,0,0.0,-999.0,98,0.00,,,-99.99,,2013-01-04 05:04:00,
2013-01-03 20:06:00,29.6,29.2,0.00,North,0,0.0,-999.0,98,0.00,,,-99.99,,2013-01-04 05:06:00,
2013-01-03 20:08:00,29.5,28.9,0.00,North,0,0.0,-999.0,97,0.00,,,-99.99,,2013-01-04 05:08:00,
2013-01-03 20:13:00,29.3,28.7,0.00,North,0,0.0,-999.0,97,0.00,,,-99.99,,2013-01-04 05:13:00,
2013-01-03 20:18:00,29.2,28.4,0.00,North,0,0.0,-999.0,96,0.00,,,-99.99,,2013-01-04 05:18:00,
2013-01-03 20:23:00,29.2,28.1,0.00,North,0,0.0,-999.0,95,0.00,,,-99.99,,2013-01-04 05:23:00,
2013-01-03 20:28:00,29.3,28.2,0.00,North,0,0.0,-999.0,95,0.00,,,-99.99,,2013-01-04 05:28:00,
2013-01-03 20:33:00,29.5,28.4,0.00,North,0,0.0,-999.0,95,0.00,,,-99.99,,2013-01-04 05:33:00,
2013-01-03 20:38:00,29.6,28.5,0.00,North,0,0.0,-999.0,95,0.00,,,-99.99,,2013-01-04 05:38:00,
2013-01-03 20:43:00,29.2,28.2,0.00,North,0,0.0,-999.0,96,0.00,,,-99.99,,2013-01-04 05:43:00,
2013-01-03 20:48:00,28.9,28.1,0.00,North,0,0.0,-999.0,96,0.00,,,-99.99,,2013-01-04 05:48:00,
2013-01-03 20:53:00,28.8,28.2,0.00,North,0,0.0,-999.0,97,0.00,,,-99.99,,2013-01-04 05:53:00,
2013-01-03 20:58:00,28.9,28.4,0.00,North,0,0.0,-999.0,97,0.00,,,-99.99,,2013-01-04 05:58:00,
2013-01-03 21:03:00,29.1,28.6,0.00,North,0,0.0,-999.0,98,0.00,,,-99.99,,2013-01-04 06:03:00,
2013-01-03 21:08:00,29.3,28.9,0.00,North,0,0.0,-999.0,98,0.00,,,-99.99,,2013-01-04 06:08:00,
2013-01-03 21:13:00,29.5,29.1,0.00,North,0,0.0,-999.0,98,0.00,,,-99.99,,2013-01-04 06:13:00,
2013-01-03 21:18:00,29.4,29.0,0.00,North,0,0.0,-999.0,98,0.00,,,-99.99,,2013-01-04 06:18:00,
2013-01-03 21:23:00,29.6,29.0,0.00,North,0,0.0,-999.0,97,0.00,,,-99.99,,2013-01-04 06:23:00,
2013-01-03 21:28:00,30.0,29.3,0.00,North,0,0.0,-999.0,97,0.00,,,-99.99,,2013-01-04 06:28:00,
2013-01-03 21:33:00,30.0,29.3,0.00,North,0,0.0,-999.0,97,0.00,,,-99.99,,2013-01-04 06:33:00,
2013-01-03 21:38:00,30.1,29.3,0.00,North,0,0.0,-999.0,96,0.00,,,-99.99,,2013-01-04 06:38:00,
2013-01-03 21:43:00,30.0,29.2,0.00,North,0,0.0,-999.0,96,0.00,,,-99.99,,2013-01-04 06:43:00,
2013-01-03 21:48:00,30.2,29.0,0.00,North,0,0.0,-999.0,95,0.00,,,-99.99,,2013-01-04 06:48:00,
2013-01-03 21:53:00,29.9,29.2,0.00,North,0,0.0,-999.0,97,0.00,,,-99.99,,2013-01-04 06:53:00,
2013-01-03 21:58:00,29.8,29.2,0.00,North,0,0.0,-999.0,97,0.00,,,-99.99,,2013-01-04 06:58:00,
2013-01-03 22:03:00,29.8,29.3,0.00,North,0,0.0,-999.0,98,0.00,,,-99.99,,2013-01-04 07:03:00,
2013-01-03 22:08:00,29.8,29.1,0.00,North,0,0.0,-999.0,97,0.00,,,-99.99,,2013-01-04 07:08:00,
2013-01-03 22:13:00,30.3,29.6,0.00,North,0,0.0,-999.0,97,0.00,,,-99.99,,2013-01-04 07:13:00,
2013-01-03 22:18:00,30.4,29.7,0.00,North,0,0.0,-999.0,97,0.00,,,-99.99,,2013-01-04 07:18:00,
2013-01-03 22:23:00,30.3,29.2,0.00,North,0,0.0,-999.0,95,0.00,,,-99.99,,2013-01-04 07:23:00,
2013-01-03 22:28:00,29.9,29.0,0.00,North,0,0.0,-999.0,96,0.00,,,-99.99,,2013-01-04 07:28:00,
2013-01-03 22:33:00,29.8,29.1,0.00,North,0,0.0,-999.0,97,0.00,,,-99.99,,2013-01-04 07:33:00,
2013-01-03 22:38:00,29.9,29.2,0.00,North,0,0.0,-999.0,97,0.00,,,-99.99,,2013-01-04 07:38:00,
2013-01-03 22:43:00,30.2,29.6,0.00,North,0,0.0,-999.0,97,0.00,,,-99.99,,2013-01-04 07:43:00,
2013-01-03 22:48:00,30.3,29.5,0.00,North,0,0.0,-999.0,96,0.00,,,-99.99,,2013-01-04 07:48:00,
2013-01-03 22:53:00,30.4,29.4,0.00,North,1,0.0,-999.0,95,0.00,,,-99.99,,2013-01-04 07:53:00,
2013-01-03 22:58:00,30.2,29.1,0.00,North,0,0.0,-999.0,95,0.00,,,-99.99,,2013-01-04 07:58:00,
2013-01-03 23:03:00,29.8,29.0,0.00,North,0,0.0,-999.0,96,0.00,,,-99.99,,2013-01-04 08:03:00,
2013-01-03 23:08:00,30.5,29.1,0.00,North,0,0.0,-999.0,94,0.00,,,-99.99,,2013-01-04 08:08:00,
2013-01-03 23:13:00,30.3,28.9,0.00,North,0,0.0,-999.0,94,0.00,,,-99.99,,2013-01-04 08:13:00,
2013-01-03 23:18:00,30.2,29.2,0.00,North,1,0.0,-999.0,95,0.00,,,-99.99,,2013-01-04 08:18:00,
2013-01-03 23:23:00,30.2,29.3,0.00,North,1,0.0,-999.0,96,0.00,,,-99.99,,2013-01-04 08:23:00,
2013-01-03 23:28:00,30.1,29.4,0.00,North,1,0.0,-999.0,97,0.00,,,-99.99,,2013-01-04 08:28:00,
2013-01-03 23:33:00,29.9,29.2,0.00,North,1,0.0,-999.0,97,0.00,,,-99.99,,2013-01-04 08:33:00,
2013-01-03 23:38:00,30.4,29.9,0.00,North,1,0.0,-999.0,97,0.00,,,-99.99,,2013-01-04 08:38:00,
2013-01-03 23:43:00,30.6,30.0,0.00,North,1,0.0,-999.0,97,0.00,,,-99.99,,2013-01-04 08:43:00,
2013-01-03 23:48:00,30.9,30.3,0.00,North,1,0.0,-999.0,97,0.00,,,-99.99,,2013-01-04 08:48:00,
2013-01-03 23:53:00,30.7,30.1,0.00,North,1,0.0,-999.0,97,0.00,,,-99.99,,2013-01-04 08:53:00,
2013-01-03 23:59:00,30.6,30.0,0.00,North,1,0.0,-999.0,97,0.00,,,-99.99,,2013-01-04 08:59:00,